Location: *
(45.9500°N, 9.0833°E)
Time: 01:38:46
(UTC+00:00)

Courier 1B Rocket - Visible Passes

Search period start: 13 June 2021 00:00
Search period end: 23 June 2021 00:00
Orbit: 920 x 1202 km, 28.2° (Epoch: 12 June)

Date Brightness Start Highest point End Pass type
(mag) Time Alt. Az. Time Alt. Az. Time Alt. Az.
13 Jun 6.8 21:01:03 10° S 21:01:27 11° S 21:01:27 11° S visible
15 Jun 6.5 20:51:05 10° SSW 20:54:08 14° S 20:54:19 14° S visible
16 Jun 6.6 19:50:59 10° SSW 19:53:30 12° SSE 19:55:59 10° SE visible
16 Jun 6.7 21:42:21 10° SW 21:43:40 13° SSW 21:43:40 13° SSW visible
17 Jun 6.4 20:41:35 10° SSW 20:45:01 15° S 20:46:31 14° SSE visible
18 Jun 6.6 21:33:28 10° SW 21:35:37 13° SSW 21:35:37 13° SSW visible
19 Jun 6.5 20:32:23 10° SW 20:35:54 15° S 20:38:17 12° SSE visible
20 Jun 6.7 21:24:58 10° SW 21:27:16 12° SSW 21:27:16 12° SSW visible
21 Jun 6.7 20:23:25 10° SW 20:26:46 14° S 20:29:50 10° SSE visible
